Weather History for Lander, WY

Change the Weather History Date:

Wednesday, September 4, 2013

  Actual Average Record
Temperature  
Mean Temperature 75 °F 64 °F  
Max Temperature 91 °F 79 °F 94 °F (1995)
Min Temperature 58 °F 49 °F 30 °F (1894)
Degree Days  
Heating Degree Days 0 3  
Month to date heating degree days 0 11  
Since 1 July heating degree days 0 51  
Cooling Degree Days 10 2  
Month to date cooling degree days 35 9  
Year to date cooling degree days 713 454  
Growing Degree Days 24 (Base 50)    
Moisture  
Dew Point 50 °F    
Average Humidity 50    
Maximum Humidity 78    
Minimum Humidity 21    
Precipitation  
Precipitation 0.00 in 0.02 in 0.18 in (2008)
Month to date precipitation 0.01 0.08  
Year to date precipitation 7.87 8.96  
Snow  
Snow 0.00 in 0.00 in - ()
Month to date snowfall 0.0 0.1  
Since 1 July snowfall 0.0 0.1  
Since 1 September snowfall 0.0 0.1  
Snow Depth 0.00 in    
Sea Level Pressure  
Sea Level Pressure 30.01 in    
Wind  
Wind Speed 4 mph (NNW)    
Max Wind Speed 12 mph    
Max Gust Speed 16 mph    
Visibility 10 miles    
Events      
T = Trace of Precipitation, MM = Missing Value Source: NWS Daily Summary

Daily Weather History Graph

Daily Weather History Graph

Search for Another Location

Airport:

Trip Planner

Search our weather history database for the weather conditions in past years. The results will help you decide how hot, cold, wet, or windy it might be!

Date:

Astronomy

Sep. 04, 2013 Rise Set
Actual Time 6:43 AM MDT 7:43 PM MDT
Civil Twilight 6:14 AM MDT 8:12 PM MDT
Nautical Twilight 5:39 AM MDT 8:46 PM MDT
Astronomical Twilight 5:03 AM MDT 9:22 PM MDT
Moon 5:58 AM MDT (9/4) 7:04 PM MDT (9/4)
Length of Visible Light 13h 58m
Length of Day
13h 00m
Waning Crescent, 1% of the Moon is Illuminated
Sep 4
Waning Crescent
Sep 5
New
Sep 12
First Quarter
Sep 19
Full
Sep 26
Last Quarter

Hourly Weather History & Observations

Time (MDT) Temp. Dew Point Humidity Pressure Visibility Wind Dir Wind Speed Gust Speed Precip Events Conditions
12:53 AM 66.0 °F 55.9 °F 70% 30.01 in 10.0 mi NNW 8.1 mph - N/A   Overcast
1:53 AM 64.9 °F 55.9 °F 73% 30.02 in 10.0 mi WNW 5.8 mph - N/A   Clear
2:53 AM 64.0 °F 54.0 °F 70% 30.02 in 10.0 mi WSW 6.9 mph - N/A   Overcast
3:53 AM 62.1 °F 54.0 °F 75% 30.02 in 10.0 mi East 3.5 mph - N/A   Clear
4:53 AM 63.0 °F 53.1 °F 70% 30.02 in 10.0 mi Calm Calm - N/A   Clear
5:53 AM 60.1 °F 54.0 °F 80% 30.04 in 10.0 mi Calm Calm - N/A   Clear
6:53 AM 59.0 °F 52.0 °F 78% 30.06 in 10.0 mi NNW 5.8 mph - N/A   Clear
7:53 AM 61.0 °F 53.1 °F 75% 30.07 in 10.0 mi Calm Calm - N/A   Clear
8:53 AM 66.0 °F 53.1 °F 63% 30.06 in 10.0 mi Calm Calm - N/A   Clear
9:53 AM 73.0 °F 54.0 °F 51% 30.06 in 10.0 mi Calm Calm - N/A   Clear
10:53 AM 75.0 °F 54.0 °F 48% 30.06 in 10.0 mi WNW 5.8 mph - N/A   Clear
11:53 AM 79.0 °F 52.0 °F 39% 30.04 in 10.0 mi Variable 3.5 mph - N/A   Clear
12:53 PM 82.0 °F 52.0 °F 35% 30.02 in 10.0 mi NNW 4.6 mph - N/A   Clear
1:53 PM 84.0 °F 50.0 °F 31% 30.01 in 10.0 mi Variable 4.6 mph - N/A   Clear
2:53 PM 89.1 °F 50.0 °F 26% 29.99 in 10.0 mi NE 8.1 mph - N/A   Clear
3:53 PM 89.1 °F 48.9 °F 25% 29.97 in 10.0 mi NNE 6.9 mph - N/A   Scattered Clouds
4:53 PM 90.0 °F 44.1 °F 20% 29.96 in 10.0 mi NNE 3.5 mph - N/A   Partly Cloudy
5:53 PM 89.1 °F 44.1 °F 21% 29.96 in 10.0 mi Variable 3.5 mph - N/A   Clear
6:53 PM 86.0 °F 46.0 °F 25% 29.95 in 10.0 mi Calm Calm - N/A   Clear
7:53 PM 82.0 °F 44.1 °F 26% 29.96 in 10.0 mi Calm Calm - N/A   Clear
8:53 PM 79.0 °F 46.9 °F 32% 29.97 in 10.0 mi Calm Calm - N/A   Clear
9:53 PM 75.0 °F 44.1 °F 33% 30.00 in 10.0 mi Variable 6.9 mph - N/A   Clear
10:53 PM 73.9 °F 45.0 °F 35% 30.01 in 10.0 mi West 6.9 mph - N/A   Clear
11:53 PM 72.0 °F 44.1 °F 37% 30.00 in 10.0 mi West 6.9 mph - N/A   Clear